Weather in Tsugol

Russia / Zabaykalsky Krai     51°02′47″N   115°37′25″E
temp.,
°C
wind,
m/s
gust,
m/s
humid.,
%
clouds,
%
prec.,
mm/h
press.,
hPa
HPBL,
m
17 june, thu
thu1700:00+8nw71387100 1.9 999533
03:00+8wnw101685100 3.8 997489
06:00+8nw81586100 0.5 995535
09:00+12nnw101673100 0.6 9931586
12:00+14nnw131958100 0.2 9902112
15:00+12nnw142376100 3.4 9901691
18:00+12nnw142569100 2.4 9901853
21:00+12nnw132473100 4.8 9891849
18 june, fri
fri1800:00+11nnw122085100 2.0 9891581
03:00+11nw91685100 6.4 9891196
06:00+10nw101787100 1.3 9891124
09:00+10nw81490100 3.8 990780
12:00+13n8107437 0.9 9921181
15:00+15nnw796366 1.4 9931492
18:00+13n5773100 0.3 995796
21:00+11n378397 0.5 996191
19 june, sat
sat1900:00+10nnw4886100 0.0 997365
03:00+9nw499074 0.0 997403
06:00+9nw51090100 0.2 996456
09:00+11nw61291100 1.3 995647
12:00+12nnw81493100 4.0 995910
15:00+15ne61078100 6.4 9961030
18:00+15nne6983100 1.3 998803
21:00+12nne499055 2.1 1001284
20 june, sun
sun2000:00+11nne3794100 0.2 1003261
03:00+11nne3896100 0.3 1004375
06:00+10n359769 0.0 1006139
09:00+12nne3791100 0.0 1007331
12:00+17ne567275 0.1 10071048
15:00+19ene466345 0.8 10071217
18:00+19ene556511 0.9 10071039
21:00+16e11775 1.4 100911
21 june, mon
mon2100:00+14n00818 0.0 101010
03:00+13nw00845 0.0 101110
06:00+12nne00862 0.0 101210
09:00+17e11730 0.0 1012388
12:00+20s225730 0.1 10111434
15:00+23s334869 0.3 10101935
18:00+22wsw2251100 0.0 10091297
21:00+19ene11670 0.0 101011